When you browse on this site, cookies collect data to enhance your experience and personalize the content and advertising you see.
Visit our Privacy Policy to learn more. By continuing to use the site, you agree to this use of cookies and data.
  • In France
  • List of Countries
  • For 7 days
  • Water Temperature
  • Satellite Maps
  • Weather Map
  • Weather Widgets
  • user-avatar
    Login

    Hourly Weather La Massana

    Today, 21 January, Monday

    Time Temperature Precipitation Wind Pressure Humidity
    00:00 -6°C° 0.1 mm 2 mps 604 mmHg 89%
    01:00 -6°C° 0.1 mm 2 mps 604 mmHg 90%
    02:00 -7°C° 0.1 mm 2 mps 604 mmHg 90%
    03:00 -7°C° 0.1 mm 2 mps 604 mmHg 90%
    04:00 -7°C° 0.1 mm 2 mps 604 mmHg 90%
    05:00 -7°C° 0.1 mm 2 mps 604 mmHg 89%
    06:00 -7°C° 0.1 mm 2 mps 605 mmHg 89%
    07:00 -7°C° 0.1 mm 3 mps 605 mmHg 85%
    08:00 -7°C° 0.1 mm 3 mps 606 mmHg 82%
    09:00 -7°C° 0.1 mm 3 mps 606 mmHg 78%
    10:00 -6°C° 0.1 mm 3 mps 606 mmHg 74%
    11:00 -5°C° 0.1 mm 3 mps 607 mmHg 70%
    12:00 -5°C° 0.1 mm 3 mps 607 mmHg 65%
    13:00 -5°C° 0 mm 3 mps 607 mmHg 66%
    14:00 -5°C° 0 mm 3 mps 606 mmHg 66%
    15:00 -5°C° 0 mm 3 mps 606 mmHg 67%
    16:00 -7°C° 0 mm 3 mps 606 mmHg 73%
    17:00 -8°C° 0 mm 3 mps 605 mmHg 80%
    18:00 -9°C° 0 mm 2 mps 605 mmHg 86%
    19:00 -9°C° 0 mm 2 mps 605 mmHg 86%
    20:00 -10°C° 0 mm 2 mps 605 mmHg 85%
    21:00 -10°C° 0 mm 2 mps 605 mmHg 84%
    22:00 -10°C° 0 mm 2 mps 604 mmHg 80%
    23:00 -12°C° 0 mm 2 mps 604 mmHg 77%

    Tomorrow, 22 January, Tuesday

    Time Temperature Precipitation Wind Pressure Humidity
    00:00 -12°C° 0 mm 2 mps 604 mmHg 73%
    01:00 -12°C° 0 mm 2 mps 604 mmHg 68%
    02:00 -12°C° 0 mm 2 mps 603 mmHg 63%
    03:00 -12°C° 0 mm 2 mps 603 mmHg 58%
    04:00 -12°C° 0 mm 2 mps 603 mmHg 54%
    05:00 -12°C° 0 mm 2 mps 602 mmHg 51%
    06:00 -12°C° 0 mm 2 mps 602 mmHg 47%
    07:00 -10°C° 0 mm 2 mps 602 mmHg 46%
    08:00 -7°C° 0 mm 1 mps 603 mmHg 45%
    09:00 -6°C° 0 mm 1 mps 603 mmHg 44%
    10:00 -3°C° 0 mm 1 mps 603 mmHg 42%
    11:00 -1°C° 0 mm 1 mps 603 mmHg 40%
    12:00 0°C° 0 mm 1 mps 603 mmHg 38%
    13:00 -1°C° 0.3 mm 1 mps 602 mmHg 49%
    14:00 -1°C° 0.3 mm 1 mps 601 mmHg 61%
    15:00 -2°C° 0.3 mm 1 mps 600 mmHg 72%
    16:00 -5°C° 0.8 mm 2 mps 600 mmHg 76%
    17:00 -5°C° 0.8 mm 2 mps 599 mmHg 81%
    18:00 -7°C° 0.8 mm 3 mps 599 mmHg 85%
    19:00 -7°C° 0.2 mm 3 mps 599 mmHg 86%
    20:00 -8°C° 0.2 mm 3 mps 598 mmHg 87%
    21:00 -7°C° 0.2 mm 2 mps 598 mmHg 88%
    22:00 -7°C° 0.5 mm 2 mps 598 mmHg 87%
    23:00 -8°C° 0.5 mm 3 mps 598 mmHg 87%

    Day after tomorrow, 23 January, Wednesday

    Time Temperature Precipitation Wind Pressure Humidity
    00:00 -8°C° 0.5 mm 3 mps 598 mmHg 87%
    01:00 -8°C° 1.1 mm 3 mps 597 mmHg 87%
    02:00 -9°C° 1.1 mm 3 mps 597 mmHg 88%
    03:00 -9°C° 1.1 mm 3 mps 597 mmHg 89%
    04:00 -8°C° 1.2 mm 2 mps 596 mmHg 91%
    05:00 -8°C° 1.2 mm 2 mps 595 mmHg 92%
    06:00 -7°C° 1.2 mm 1 mps 594 mmHg 94%
    07:00 -8°C° 1.8 mm 2 mps 594 mmHg 94%
    08:00 -9°C° 1.8 mm 3 mps 594 mmHg 94%
    09:00 -9°C° 1.8 mm 3 mps 594 mmHg 93%
    10:00 -10°C° 1.5 mm 4 mps 594 mmHg 92%
    11:00 -11°C° 1.5 mm 5 mps 594 mmHg 92%
    12:00 -11°C° 1.5 mm 6 mps 594 mmHg 91%
    13:00 -12°C° 0.7 mm 6 mps 593 mmHg 90%
    14:00 -14°C° 0.7 mm 7 mps 593 mmHg 90%
    15:00 -14°C° 0.7 mm 7 mps 593 mmHg 89%
    16:00 -15°C° 0.4 mm 7 mps 593 mmHg 90%
    17:00 -16°C° 0.4 mm 8 mps 593 mmHg 90%
    18:00 -17°C° 0.4 mm 8 mps 594 mmHg 90%
    19:00 -17°C° 0.5 mm 8 mps 594 mmHg 91%
    20:00 -17°C° 0.5 mm 8 mps 595 mmHg 91%
    21:00 -17°C° 0.5 mm 8 mps 596 mmHg 92%
    22:00 -17°C° 0.5 mm 7 mps 596 mmHg 92%
    23:00 -17°C° 0.5 mm 7 mps 596 mmHg 92%

    24 January, Thursday

    Time Temperature Precipitation Wind Pressure Humidity
    00:00 -16°C° 0.5 mm 6 mps 596 mmHg 92%
    01:00 -16°C° 0.7 mm 6 mps 597 mmHg 91%
    02:00 -16°C° 0.7 mm 6 mps 597 mmHg 91%
    03:00 -16°C° 0.7 mm 6 mps 597 mmHg 90%
    04:00 -16°C° 0.4 mm 6 mps 597 mmHg 90%
    05:00 -16°C° 0.4 mm 6 mps 597 mmHg 90%
    06:00 -16°C° 0.4 mm 6 mps 598 mmHg 89%
    07:00 -16°C° 0.2 mm 6 mps 598 mmHg 88%
    08:00 -15°C° 0.2 mm 5 mps 599 mmHg 87%
    09:00 -14°C° 0.2 mm 5 mps 599 mmHg 85%
    10:00 -14°C° 0 mm 5 mps 600 mmHg 83%
    11:00 -14°C° 0 mm 6 mps 600 mmHg 81%
    12:00 -12°C° 0 mm 6 mps 601 mmHg 78%
    13:00 -12°C° 0 mm 5 mps 601 mmHg 77%
    14:00 -12°C° 0 mm 5 mps 601 mmHg 76%
    15:00 -11°C° 0 mm 5 mps 601 mmHg 75%
    16:00 -13°C° 0 mm 5 mps 601 mmHg 79%
    17:00 -14°C° 0 mm 4 mps 601 mmHg 83%
    18:00 -16°C° 0 mm 4 mps 601 mmHg 87%
    19:00 -16°C° 0 mm 4 mps 601 mmHg 85%
    20:00 -16°C° 0 mm 4 mps 602 mmHg 83%
    21:00 -16°C° 0 mm 4 mps 602 mmHg 81%
    22:00 -15°C° 0 mm 4 mps 603 mmHg 78%
    23:00 -14°C° 0 mm 4 mps 603 mmHg 75%

    25 January, Friday

    Time Temperature Precipitation Wind Pressure Humidity
    00:00 -12°C° 0 mm 4 mps 604 mmHg 72%
    01:00 -11°C° 0.1 mm 4 mps 604 mmHg 77%
    02:00 -10°C° 0.1 mm 4 mps 604 mmHg 82%
    03:00 -9°C° 0.1 mm 4 mps 604 mmHg 88%
    04:00 -8°C° 0.2 mm 4 mps 605 mmHg 89%
    05:00 -7°C° 0.2 mm 4 mps 605 mmHg 90%
    06:00 -5°C° 0.2 mm 4 mps 606 mmHg 90%
    07:00 -5°C° 0.2 mm 5 mps 606 mmHg 90%
    08:00 -4°C° 0.2 mm 5 mps 607 mmHg 90%
    09:00 -4°C° 0.2 mm 5 mps 608 mmHg 90%
    10:00 -2°C° 0.2 mm 5 mps 608 mmHg 89%
    11:00 -2°C° 0.2 mm 5 mps 608 mmHg 89%
    12:00 -1°C° 0.2 mm 5 mps 608 mmHg 89%
    13:00 -1°C° 0.1 mm 5 mps 608 mmHg 89%
    14:00 -2°C° 0.1 mm 5 mps 608 mmHg 89%
    15:00 -2°C° 0.1 mm 4 mps 608 mmHg 89%
    16:00 -2°C° 0.1 mm 4 mps 608 mmHg 90%
    17:00 -3°C° 0.1 mm 4 mps 608 mmHg 91%
    18:00 -3°C° 0.1 mm 4 mps 608 mmHg 93%
    19:00 -4°C° 0.1 mm 4 mps 608 mmHg 93%
    20:00 -4°C° 0.1 mm 3 mps 608 mmHg 93%
    21:00 -4°C° 0.1 mm 3 mps 608 mmHg 93%
    22:00 -4°C° 0 mm 3 mps 608 mmHg 93%
    23:00 -5°C° 0 mm 3 mps 608 mmHg 93%

    26 January, Saturday

    Time Temperature Precipitation Wind Pressure Humidity
    00:00 -5°C° 0 mm 2 mps 608 mmHg 93%
    01:00 -5°C° 0 mm 2 mps 607 mmHg 92%
    02:00 -6°C° 0 mm 2 mps 607 mmHg 91%
    03:00 -7°C° 0 mm 2 mps 606 mmHg 90%
    04:00 -7°C° 0 mm 2 mps 606 mmHg 89%
    05:00 -8°C° 0 mm 2 mps 606 mmHg 87%
    06:00 -8°C° 0 mm 2 mps 605 mmHg 85%
    07:00 -6°C° 0 mm 2 mps 606 mmHg 84%
    08:00 -5°C° 0 mm 2 mps 607 mmHg 82%
    09:00 -4°C° 0 mm 2 mps 607 mmHg 80%
    10:00 -2°C° 0 mm 2 mps 608 mmHg 81%
    11:00 +1°C° 0 mm 1 mps 608 mmHg 82%
    12:00 +3°C° 0 mm 1 mps 608 mmHg 83%
    13:00 +3°C° 0 mm 1 mps 608 mmHg 85%
    14:00 +2°C° 0 mm 1 mps 607 mmHg 87%
    15:00 +2°C° 0 mm 1 mps 607 mmHg 88%
    16:00 0°C° 0 mm 1 mps 606 mmHg 90%
    17:00 -1°C° 0 mm 1 mps 605 mmHg 92%
    18:00 -5°C° 0 mm 2 mps 605 mmHg 95%
    19:00 -5°C° 0 mm 2 mps 604 mmHg 92%
    20:00 -6°C° 0 mm 2 mps 603 mmHg 90%
    21:00 -7°C° 0 mm 2 mps 603 mmHg 88%
    22:00 -6°C° 0 mm 2 mps 603 mmHg 89%
    23:00 -6°C° 0 mm 3 mps 603 mmHg 91%
    Show more